User: anonymous   Login
Location: Quebec
(46.8000°N, 71.2500°W)
Time: 10:02:30
(UTC-04:00)
Language:

CZ-4B R/B - Orbit

View from above orbital plane
View from above orbital plane
View from above satellite
View from above satellite

Ground track
Ground track

The orbit data is extracted from the following two-line orbital elements,

1 29093U 06015B   17085.85262289 +.00003709 +00000-0 +91472-4 0  9994
2 29093 097.4878 194.8634 0063598 253.2853 106.1406 15.39146064604863
Epoch (UTC): 26 March 2017 20:27:46
Eccentricity: 0.0063598
inclination: 97.4878°
perigee height: 405 km
apogee height: 492 km
right ascension of ascending node: 194.8634°
argument of perigee: 253.2853°
revolutions per day: 15.39146064
mean anomaly at epoch: 106.1406°
orbit number at epoch: 60486

The dashed part of the orbit path shows where the satellite is in the earth's shadow,  

DLR